Weather History for Winslow, AZ

Change the Weather History Date:

Monday, January 6, 2014

  Actual Average Record
Temperature  
Mean Temperature 27 °F 34 °F  
Max Temperature 44 °F 48 °F 66 °F (1956)
Min Temperature 9 °F 20 °F -15 °F (1971)
Degree Days  
Heating Degree Days 38 31  
Month to date heating degree days 184 186  
Since 1 July heating degree days 2145 2064  
Cooling Degree Days 0 0  
Month to date cooling degree days 0 0  
Year to date cooling degree days 0 0  
Moisture  
Dew Point 1 °F    
Average Humidity 41    
Maximum Humidity 67    
Minimum Humidity 14    
Precipitation  
Precipitation 0.00 in 0.01 in 0.83 in (1935)
Month to date precipitation 0.00 0.10  
Year to date precipitation 0.00 0.10  
Sea Level Pressure  
Sea Level Pressure 30.50 in    
Wind  
Wind Speed 2 mph (SSE)    
Max Wind Speed 8 mph    
Max Gust Speed 9 mph    
Visibility 10 miles    
Events      
T = Trace of Precipitation, MM = Missing Value Source: NWS Daily Summary

Daily Weather History Graph

Daily Weather History Graph

Search for Another Location

Airport:

Trip Planner

Search our weather history database for the weather conditions in past years. The results will help you decide how hot, cold, wet, or windy it might be!

Date:

Astronomy

Jan. 06, 2014 Rise Set
Actual Time 7:31 AM MST 5:26 PM MST
Civil Twilight 7:03 AM MST 5:54 PM MST
Nautical Twilight 6:32 AM MST 6:25 PM MST
Astronomical Twilight 6:01 AM MST 6:56 PM MST
Moon 11:03 AM MST (1/6) 11:47 PM MST (1/6)
Length of Visible Light 10h 50m
Length of Day
9h 54m
Waxing Crescent, 35% of the Moon is Illuminated
Jan 6
Waxing Crescent
Jan 7
First Quarter
Jan 15
Full
Jan 23
Last Quarter
Jan 30
New

Hourly Weather History & Observations

Time (MST) Temp. Windchill Dew Point Humidity Pressure Visibility Wind Dir Wind Speed Gust Speed Precip Events Conditions
12:56 AM 14.0 °F 6.5 °F 1.0 °F 56% 30.45 in 10.0 mi South 4.6 mph - N/A   Clear
1:56 AM 12.9 °F 6.9 °F 1.0 °F 59% 30.47 in 10.0 mi SSW 3.5 mph - N/A   Clear
2:56 AM 14.0 °F - 1.9 °F 59% 30.48 in 10.0 mi Calm Calm - N/A   Clear
3:56 AM 17.1 °F - 1.9 °F 52% 30.49 in 10.0 mi Calm Calm - N/A   Clear
4:56 AM 12.9 °F - 3.0 °F 65% 30.52 in 10.0 mi Calm Calm - N/A   Clear
5:56 AM 12.0 °F - 1.9 °F 64% 30.57 in 10.0 mi Calm Calm - N/A   Clear
6:56 AM 10.0 °F 0.4 °F 1.0 °F 67% 30.61 in 10.0 mi ESE 5.8 mph - N/A   Clear
7:56 AM 10.9 °F 4.7 °F 1.0 °F 64% 30.64 in 10.0 mi ESE 3.5 mph - N/A   Clear
8:56 AM 18.0 °F 11.1 °F 3.0 °F 52% 30.63 in 10.0 mi ESE 4.6 mph - N/A   Clear
9:56 AM 25.0 °F 20.7 °F 6.1 °F 45% 30.61 in 10.0 mi SE 3.5 mph - N/A   Clear
10:56 AM 32.0 °F 28.7 °F 5.0 °F 32% 30.58 in 10.0 mi Variable 3.5 mph - N/A   Clear
11:56 AM 37.0 °F - 3.9 °F 25% 30.52 in 10.0 mi Calm Calm - N/A   Clear
12:56 PM 39.9 °F 37.8 °F -0.0 °F 19% 30.48 in 10.0 mi Variable 3.5 mph - N/A   Clear
1:56 PM 41.0 °F - -0.0 °F 18% 30.46 in 10.0 mi Calm Calm - N/A   Clear
2:56 PM 44.1 °F 42.5 °F -2.9 °F 14% 30.43 in 10.0 mi Variable 3.5 mph - N/A   Clear
3:56 PM 43.0 °F - -2.9 °F 15% 30.42 in 10.0 mi Calm Calm - N/A   Clear
4:56 PM 42.1 °F 40.2 °F -0.9 °F 17% 30.43 in 10.0 mi WNW 3.5 mph - N/A   Clear
5:56 PM 32.0 °F - -0.0 °F 26% 30.46 in 10.0 mi Calm Calm - N/A   Clear
6:56 PM 24.1 °F - -0.9 °F 34% 30.51 in 10.0 mi Calm Calm - N/A   Clear
7:56 PM 21.9 °F - -0.0 °F 38% 30.52 in 10.0 mi Calm Calm - N/A   Clear
8:56 PM 19.9 °F - -0.0 °F 42% 30.50 in 10.0 mi Calm Calm - N/A   Clear
9:56 PM 19.0 °F 10.0 °F 1.9 °F 47% 30.48 in 10.0 mi SW 6.9 mph - N/A   Clear
10:56 PM 18.0 °F - 3.0 °F 52% 30.45 in 10.0 mi Calm Calm - N/A   Clear
11:56 PM 19.0 °F - 3.0 °F 50% 30.41 in 10.0 mi Calm Calm - N/A   Clear